{"data":{"norad_id":55748,"intl_designator":"2023-028H","name":"STARLINK-5580","alt_names":[],"object_type":"PAYLOAD","status":"ACTIVE","operator":null,"country":"US","launch_date":"2023-03-03","launch_site_code":"AFWTR","launch_vehicle":null,"mission":null,"orbit_class":"UNKNOWN","rcs_meters":null,"size_class":null,"mass_kg":null,"dimensions":null,"purposes":["comms"],"wikipedia_slug":null,"has_3d_model":false,"image_url":null,"decayed_at":null,"tle_current":{"epoch":"2026-05-25T03:50:07.314432Z","epoch_age_seconds":58556,"freshness":"FRESH","line1":"1 55748U 23028H   26145.15980688  .00000515  00000+0  50972-4 0  9994","line2":"2 55748  70.0009  51.6906 0003014 268.2278  91.8536 14.98331016177493","mean_motion":14.98331016,"eccentricity":0.0003014,"inclination_deg":70.0009,"raan_deg":51.6906,"arg_perigee_deg":268.2278,"mean_anomaly_deg":91.8536,"bstar":5.0972e-5,"rev_number":17749,"period_min":96.106933956709,"perigee_km":569.95796185964,"apogee_km":574.14753624036,"semimajor_km":6950.18974905,"source":"CELESTRAK","updated_at":"2026-05-25T13:38:17.879153Z"}}}